CW4647 Weather Reports


Display with metric or nautical units.
time (UTC)temp
F
wind
direction
speed
MPH
gust
MPH
rain 1hr
in
rain 24hr
in
rain mn
in
humidity
%
barometer
mb
20260502164055 80 59 8.0 14.0 0.00 0.00 0.00 76 1009.9
20260502163556 80 59 8.0 14.0 0.00 0.00 0.00 76 1009.9
20260502163100 80 73 7.0 13.0 0.00 0.00 0.00 76 1009.9
20260502162600 80 69 8.0 13.0 0.00 0.00 0.00 76 1009.9
20260502162057 80 55 8.0 14.0 0.00 0.00 0.00 76 1009.9
20260502161558 80 63 8.0 14.0 0.00 0.00 0.00 76 1010.1
20260502161054 80 66 7.0 13.0 0.00 0.00 0.00 77 1010.1
20260502160557 80 69 5.0 11.0 0.00 0.00 0.00 77 1010.2
20260502152058 80 81 5.0 11.0 0.00 0.00 0.00 78 1010.7
20260502151614 80 49 6.0 12.0 0.00 0.00 0.00 78 1010.8
20260502151058 80 63 6.0 13.0 0.00 0.00 0.00 78 1010.8
20260502150555 80 78 9.0 13.0 0.00 0.00 0.00 77 1010.9
20260502140103 81 53 7.0 13.0 0.00 0.00 0.00 77 1011.6
20260502130602 81 49 7.0 13.0 0.00 0.00 0.00 76 1012.1
20260502123555 81 81 9.0 15.0 0.00 0.00 0.00 76 1012.0
20260502123057 81 73 6.0 16.0 0.00 0.00 0.00 76 1012.0
20260502122604 81 71 8.0 17.0 0.00 0.00 0.00 76 1012.0
20260502122057 81 51 10.0 17.0 0.00 0.00 0.00 75 1011.9
20260502121558 81 57 6.0 13.0 0.00 0.00 0.00 76 1012.0
20260502121103 81 51 8.0 14.0 0.00 0.00 0.00 76 1011.9
20260502120557 81 63 7.0 16.0 0.00 0.00 0.00 76 1011.9
20260502115558 81 46 8.0 16.0 0.00 0.00 0.00 76 1011.9
20260502115056 82 57 10.0 16.0 0.00 0.00 0.00 76 1011.8
20260502114556 82 66 8.0 15.0 0.00 0.00 0.00 76 1011.9
20260502114056 82 73 8.0 14.0 0.00 0.00 0.00 75 1011.9
20260502113556 82 60 8.0 14.0 0.00 0.00 0.00 76 1011.8
20260502113113 82 80 6.0 17.0 0.00 0.00 0.00 76 1011.7
20260502112555 82 86 7.0 17.0 0.00 0.00 0.00 76 1011.7
20260502112055 82 78 8.0 14.0 0.00 0.00 0.00 76 1011.5
20260502111602 82 83 8.0 16.0 0.00 0.00 0.00 77 1011.6
20260502111059 82 59 9.0 16.0 0.00 0.00 0.00 77 1011.5
20260502110559 82 65 9.0 16.0 0.00 0.00 0.00 77 1011.4
20260502110057 82 69 8.0 14.0 0.00 0.00 0.00 76 1011.5
20260502105559 82 46 7.0 15.0 0.00 0.00 0.00 76 1011.4
20260502105055 82 46 10.0 15.0 0.00 0.00 0.00 76 1011.3
20260502104608 82 50 9.0 15.0 0.00 0.00 0.00 76 1011.2
20260502104058 82 80 10.0 15.0 0.00 0.00 0.00 75 1011.2
20260502103556 82 50 10.0 16.0 0.00 0.00 0.00 75 1011.1
20260502103056 82 54 10.0 16.0 0.00 0.00 0.00 75 1011.1
20260502102558 82 83 8.0 16.0 0.00 0.00 0.00 76 1011.1
20260502102057 82 48 8.0 16.0 0.00 0.00 0.00 75 1011.0
20260502101609 82 72 9.0 16.0 0.00 0.00 0.00 75 1011.0
20260502101058 82 61 8.0 16.0 0.00 0.00 0.00 75 1011.0
20260502100559 82 49 10.0 16.0 0.00 0.00 0.00 75 1010.8
20260502091059 82 56 12.0 19.0 0.00 0.00 0.00 74 1010.2
20260502090556 83 54 10.0 18.0 0.00 0.00 0.00 75 1010.3
20260502090107 83 88 11.0 20.0 0.00 0.00 0.00 75 1010.1
20260502071058 85 65 9.0 18.0 0.00 0.00 0.00 68 1009.1
20260502070555 85 71 11.0 21.0 0.00 0.00 0.00 69 1009.0
20260502070122 85 49 14.0 21.0 0.00 0.00 0.00 69 1009.0
20260502065557 85 82 13.0 23.0 0.00 0.00 0.00 68 1009.0
20260502065100 86 99 13.0 23.0 0.00 0.00 0.00 67 1008.9
20260502064557 86 78 12.0 20.0 0.00 0.00 0.00 66 1008.8
20260502064056 86 90 10.0 20.0 0.00 0.00 0.00 65 1008.9
20260502063556 86 72 11.0 22.0 0.00 0.00 0.00 67 1008.9
20260502063123 86 68 14.0 23.0 0.00 0.00 0.00 66 1008.9
20260502062601 86 55 14.0 23.0 0.00 0.00 0.00 68 1009.0
20260502062056 86 74 14.0 23.0 0.00 0.00 0.00 67 1008.9
20260502061559 86 76 14.0 23.0 0.00 0.00 0.00 69 1008.9
20260502061058 86 74 13.0 23.0 0.00 0.00 0.00 68 1008.8
20260502060558 86 57 15.0 23.0 0.00 0.00 0.00 68 1008.8
20260502060058 86 69 13.0 23.0 0.00 0.00 0.00 67 1008.9
20260502055559 86 62 12.0 23.0 0.00 0.00 0.00 68 1008.9
20260502055059 86 82 17.0 24.0 0.00 0.00 0.00 67 1008.9
20260502054609 86 76 11.0 27.0 0.00 0.00 0.00 68 1008.9
20260502054059 86 65 16.0 27.0 0.00 0.00 0.00 68 1008.8
20260502053556 86 58 16.0 27.0 0.00 0.00 0.00 66 1008.8
20260502053059 87 67 12.0 22.0 0.00 0.00 0.00 66 1008.9
20260502052556 86 74 14.0 27.0 0.00 0.00 0.00 67 1008.9
20260502052057 86 82 16.0 27.0 0.00 0.00 0.00 68 1008.9
20260502051557 86 65 13.0 24.0 0.00 0.00 0.00 68 1008.9
20260502051056 87 44 12.0 24.0 0.00 0.00 0.00 66 1008.9
20260502050557 87 128 15.0 22.0 0.00 0.00 0.00 1008.9
20260502050057 87 80 13.0 23.0 0.00 0.00 0.00 66 1009.0
20260502045601 87 62 11.0 23.0 0.00 0.00 0.00 64 1009.0
20260502045056 87 87 14.0 26.0 0.00 0.00 0.00 66 1009.0
20260502044556 87 76 14.0 26.0 0.00 0.00 0.00 64 1008.8
20260502044058 87 76 15.0 24.0 0.00 0.00 0.00 66 1008.9
20260502043556 88 84 11.0 25.0 0.00 0.00 0.00 65 1008.9
20260502043111 88 80 10.0 25.0 0.00 0.00 0.00 65 1009.0
20260502042600 88 84 13.0 25.0 0.00 0.00 0.00 64 1009.0
20260502042058 88 101 11.0 25.0 0.00 0.00 0.00 63 1009.0
20260502041619 88 109 12.0 25.0 0.00 0.00 0.00 64 1009.1
20260502041101 87 76 13.0 24.0 0.00 0.00 0.00 63 1009.1
20260502040623 87 89 10.0 20.0 0.00 0.00 0.00 67 1009.1
20260502040100 87 115 14.0 22.0 0.00 0.00 0.00 67 1009.2
20260502035559 87 67 13.0 27.0 0.00 0.00 0.00 66 1009.2
20260502035056 87 78 14.0 27.0 0.00 0.00 0.00 67 1009.2
20260502034557 87 81 14.0 24.0 0.00 0.00 0.00 66 1009.4
20260502034056 87 77 14.0 24.0 0.00 0.00 0.00 66 1009.4
20260502033555 87 78 12.0 25.0 0.00 0.00 0.00 68 1009.5
20260502033057 87 88 14.0 25.0 0.00 0.00 0.00 68 1009.5
20260502032555 86 86 14.0 27.0 0.00 0.00 0.00 68 1009.5
20260502032058 86 101 15.0 27.0 0.00 0.00 0.00 67 1009.5
20260502031556 87 94 11.0 26.0 0.00 0.00 0.00 68 1009.5
20260502031102 86 67 18.0 26.0 0.00 0.00 0.00 67 1009.5
20260502030557 87 65 16.0 21.0 0.00 0.00 0.00 68 1009.5
20260502030117 87 43 12.0 23.0 0.00 0.00 0.00 68 1009.7
20260502025557 87 75 12.0 25.0 0.00 0.00 0.00 69 1009.7
20260502025057 87 121 14.0 25.0 0.00 0.00 0.00 67 1009.7
20260502024606 87 82 14.0 20.0 0.00 0.00 0.00 68 1009.8
20260502024056 87 71 8.0 21.0 0.00 0.00 0.00 69 1009.9
20260502023559 87 104 12.0 23.0 0.00 0.00 0.00 68 1009.9
20260502023132 86 71 13.0 23.0 0.00 0.00 0.00 69 1010.1
20260502022559 87 80 13.0 21.0 0.00 0.00 0.00 68 1010.1
20260502022056 86 72 11.0 24.0 0.00 0.00 0.00 70 1010.1
20260502021556 86 83 14.0 24.0 0.00 0.00 0.00 68 1010.2
20260502021055 87 90 11.0 20.0 0.00 0.00 0.00 68 1010.3
20260502020559 86 102 12.0 20.0 0.00 0.00 0.00 68 1010.3
20260502020104 86 60 12.0 23.0 0.00 0.00 0.00 69 1010.4
20260502015557 87 78 11.0 23.0 0.00 0.00 0.00 70 1010.5
20260502015057 87 97 14.0 23.0 0.00 0.00 0.00 68 1010.7
20260502014607 86 70 14.0 23.0 0.00 0.00 0.00 69 1010.7
20260502014058 87 68 12.0 22.0 0.00 0.00 0.00 69 1010.7
20260502013559 86 96 12.0 25.0 0.00 0.00 0.00 69 1010.7
20260502013103 87 67 13.0 25.0 0.00 0.00 0.00 68 1010.8
20260502012559 86 98 15.0 23.0 0.00 0.00 0.00 68 1010.8
20260502012059 87 84 15.0 23.0 0.00 0.00 0.00 68 1010.9
20260502011607 86 77 11.0 23.0 0.00 0.00 0.00 68 1010.9
20260502011055 86 81 15.0 22.0 0.00 0.00 0.00 69 1010.9
20260502010558 86 86 15.0 21.0 0.00 0.00 0.00 70 1010.9
20260502010057 86 70 13.0 21.0 0.00 0.00 0.00 69 1011.0
20260502005558 86 94 11.0 23.0 0.00 0.00 0.00 70 1011.1
20260502005101 86 80 15.0 23.0 0.00 0.00 0.00 69 1011.1
20260502004558 86 66 14.0 26.0 0.00 0.00 0.00 69 1011.1
20260502004058 86 67 14.0 26.0 0.00 0.00 0.00 69 1011.1
20260502003556 86 59 12.0 26.0 0.00 0.00 0.00 67 1011.2
20260502003057 86 79 15.0 23.0 0.00 0.00 0.00 67 1011.2
20260502002601 87 80 11.0 21.0 0.00 0.00 0.00 69 1011.1
20260502002059 86 84 14.0 21.0 0.00 0.00 0.00 68 1011.0
20260502001603 86 92 14.0 23.0 0.00 0.00 0.00 68 1011.1
20260502001059 86 93 12.0 27.0 0.00 0.00 0.00 69 1011.1
20260502000558 85 80 15.0 27.0 0.00 0.00 0.00 69 1011.2
20260502000109 86 88 14.0 27.0 0.00 0.00 0.00 68 1011.3
20260501235557 86 60 12.0 20.0 0.00 0.00 0.00 70 1011.3
20260501235102 86 80 12.0 21.0 0.00 0.00 0.00 70 1011.3
20260501234555 86 93 11.0 21.0 0.00 0.00 0.00 70 1011.3
20260501234058 85 82 13.0 20.0 0.00 0.00 0.00 70 1011.3
20260501233558 86 53 12.0 18.0 0.00 0.00 0.00 70 1011.5
20260501233117 86 88 9.0 18.0 0.00 0.00 0.00 69 1011.5
20260501232558 85 71 11.0 19.0 0.00 0.00 0.00 70 1011.6
20260501232058 85 52 11.0 20.0 0.00 0.00 0.00 71 1011.5
20260501231627 85 80 11.0 20.0 0.00 0.00 0.00 70 1011.6
20260501231058 85 96 11.0 23.0 0.00 0.00 0.00 70 1011.6
20260501230600 85 61 12.0 23.0 0.00 0.00 0.00 70 1011.6
20260501230118 85 55 13.0 19.0 0.00 0.00 0.00 71 1011.5
20260501225558 85 69 13.0 19.0 0.00 0.00 0.00 71 1011.5
20260501225058 85 86 8.0 21.0 0.00 0.00 0.00 72 1011.5
20260501224606 85 80 14.0 23.0 0.00 0.00 0.00 72 1011.4
20260501224057 84 85 12.0 23.0 0.00 0.00 0.00 73 1011.4
20260501223557 84 87 10.0 19.0 0.00 0.00 0.00 73 1011.6
20260501223059 84 73 10.0 19.0 0.00 0.00 0.00 74 1011.5
20260501222558 84 81 11.0 20.0 0.00 0.00 0.00 74 1011.5
20260501222058 84 89 12.0 20.0 0.00 0.00 0.00 75 1011.5
20260501221610 84 101 12.0 19.0 0.00 0.00 0.00 74 1011.4
20260501221058 84 76 11.0 16.0 0.00 0.00 0.00 74 1011.4
20260501220558 84 56 8.0 17.0 0.00 0.00 0.00 75 1011.3
20260501220105 84 66 9.0 17.0 0.00 0.00 0.00 75 1011.2
20260501215558 83 82 10.0 17.0 0.00 0.00 0.00 75 1011.2
20260501215058 83 61 7.0 17.0 0.00 0.00 0.00 76 1011.1
20260501214601 83 68 10.0 17.0 0.00 0.00 0.00 76 1011.0
20260501214057 83 76 9.0 17.0 0.00 0.00 0.00 77 1011.0
20260501213557 83 82 9.0 14.0 0.00 0.00 0.00 77 1011.1
20260501213101 83 86 7.0 17.0 0.00 0.00 0.00 78 1011.0
20260501212558 82 54 8.0 17.0 0.00 0.00 0.00 78 1011.0
20260501212058 82 52 7.0 17.0 0.00 0.00 0.00 79 1010.9
20260501211557 81 58 9.0 17.0 0.00 0.00 0.00 80 1010.9
20260501211058 82 81 7.0 14.0 0.00 0.00 0.00 80 1011.0
20260501210555 82 88 9.0 14.0 0.00 0.00 0.00 80 1011.0
20260501210100 81 73 7.0 12.0 0.00 0.00 0.00 80 1011.0
20260501205600 81 58 6.0 10.0 0.00 0.00 0.00 81 1011.0
20260501205056 81 47 5.0 11.0 0.00 0.00 0.00 81 1011.0
20260501204556 81 74 5.0 11.0 0.00 0.00 0.00 81 1010.9
20260501204056 81 89 5.0 12.0 0.00 0.00 0.00 81 1010.8
20260501203600 81 36 7.0 12.0 0.00 0.00 0.00 81 1010.8
20260501203058 81 63 6.0 14.0 0.00 0.00 0.00 81 1010.8
20260501202557 80 66 6.0 14.0 0.00 0.00 0.00 82 1010.6
20260501202059 80 72 6.0 13.0 0.00 0.00 0.00 82 1010.6
20260501201559 80 80 3.0 10.0 0.00 0.00 0.00 83 1010.6
20260501201058 80 78 4.0 9.0 0.00 0.00 0.00 83 1010.5
20260501200559 80 59 3.0 9.0 0.00 0.00 0.00 83 1010.4
20260501200056 80 60 4.0 10.0 0.00 0.00 0.00 83 1010.5
20260501195559 80 55 4.0 10.0 0.00 0.00 0.00 83 1010.5
20260501195100 80 46 4.0 9.0 0.00 0.00 0.00 83 1010.5
20260501194600 80 47 3.0 8.0 0.00 0.00 0.00 83 1010.5
20260501194059 80 74 3.0 8.0 0.00 0.00 0.00 83 1010.4
20260501193556 80 47 3.0 9.0 0.00 0.00 0.00 83 1010.4
20260501193057 80 69 4.0 9.0 0.00 0.00 0.00 83 1010.4
20260501192559 80 61 3.0 6.0 0.00 0.00 0.00 82 1010.3
20260501192059 80 36 3.0 8.0 0.00 0.00 0.00 82 1010.3
20260501191601 80 84 3.0 8.0 0.00 0.00 0.00 82 1010.2
20260501191102 80 59 4.0 10.0 0.00 0.00 0.00 82 1010.2
20260501190559 80 76 5.0 10.0 0.00 0.00 0.00 82 1010.1
20260501190100 80 74 3.0 9.0 0.00 0.00 0.00 82 1010.1
20260501185556 80 75 4.0 9.0 0.00 0.00 0.00 82 1010.1
20260501185056 81 77 4.0 10.0 0.00 0.00 0.00 81 1010.1
20260501184600 81 74 4.0 11.0 0.00 0.00 0.00 81 1010.0
20260501184056 81 41 5.0 11.0 0.00 0.00 0.00 81 1009.9
20260501183558 81 69 8.0 14.0 0.00 0.00 0.00 81 1009.8
20260501183144 81 84 6.0 14.0 0.00 0.00 0.00 81 1009.7
20260501183103 81 84 6.0 14.0 0.00 0.00 0.00 81 1009.7
20260501182556 81 75 8.0 14.0 0.00 0.00 0.00 81 1009.8
20260501182055 81 76 7.0 11.0 0.00 0.00 0.00 82 1009.8
20260501181558 81 86 5.0 9.0 0.00 0.00 0.00 82 1009.8
20260501181058 81 66 3.0 9.0 0.00 0.00 0.00 82 1009.8
20260501180558 81 78 3.0 11.0 0.00 0.00 0.00 82 1009.8
20260501180101 81 80 4.0 11.0 0.00 0.00 0.00 82 1009.8
20260501175557 81 73 6.0 11.0 0.00 0.00 0.00 82 1009.8
20260501175056 81 80 4.0 9.0 0.00 0.00 0.00 82 1009.8
20260501174600 81 65 3.0 9.0 0.00 0.00 0.00 82 1009.9
20260501174059 81 88 4.0 9.0 0.00 0.00 0.00 82 1009.9
20260501173559 81 61 4.0 9.0 0.00 0.00 0.00 81 1009.9
20260501173108 81 73 4.0 11.0 0.00 0.00 0.00 81 1009.9
20260501172556 81 65 4.0 11.0 0.00 0.00 0.00 81 1009.9
20260501172058 81 71 3.0 12.0 0.00 0.00 0.00 81 1009.9
20260501171605 81 78 5.0 12.0 0.00 0.00 0.00 81 1010.0